[[{"header":{"parameterUnit":"m.s-1","parameterCategory":1,"la1":30.2991,"la2":30.254,"lo1":-89.0895,"lo2":-89.0444,"dy":0.0017,"dx":0.0017,"nx":28,"ny":28,"refTime":"2025-06-14T03:00:00:Z","depth":0,"parameterNumber":2,"parameterNumberName":"U-component_of_WINDS"},"data":[0,0,0,0,0,0,0,0,0,0,0,0,0,0,0,0,0,0,0,0,0,0,0,0,0,0,0,0,0,0,0,0,0,0,0,0,0,0,0,0,0,0,0,0,0,0,0,0,0,0,0,0,0,0,0,0,0,0,0.0366,0.0368,0,0.049,0.0492,0.0493,0.0537,0.0537,0.0536,0.0536,0.0664,0.0668,0.0672,0,0,0,0,0,0,0,0,0,0,0,0,0,0.0169,0.0173,0.0366,0.0368,0.0369,0.049,0.0492,0.0493,0.0537,0.0537,0.0536,0.0536,0.0663,0.0668,0.0672,0,0,0,0,0,0,0,0,0,0,0,0,0,0.027,0.0174,0.0366,0.0406,0.0411,0.049,0.0492,0.0494,0.0537,0.0537,0.0536,0.0535,0.0662,0.0667,0.0673,0.0722,0,0,0.069,0.0693,0,0,0,0,0,0,0,0,0.0264,0.0277,0.0398,0.0403,0.0409,0.0498,0.047,0.057,0.0538,0.0489,0.0536,0.0535,0.0609,0.0619,0.0644,0.0728,0.0734,0.0691,0.0694,0.0697,0.0699,0,0,0,0,0,0,0,0.0257,0.0272,0.0415,0.04,0.0406,0.0418,0.0432,0.0489,0.0552,0.0493,0.0497,0.0511,0.0612,0.0639,0.0648,0.0736,0.0691,0.0696,0.0699,0.0702,0.0867,0.0868,0,0,0,0,0,0,0.0244,0.0266,0.0411,0.0419,0.0333,0.0422,0.0437,0.047,0.0551,0.0563,0.0511,0.0512,0.0629,0.0641,0.0652,0.0716,0.0697,0.0702,0.0706,0.0866,0.0867,0.0868,0,0,0,0,0,0,0.0239,0.0256,0.0406,0.0344,0.0364,0.0426,0.0462,0.0473,0.0499,0.0565,0.0576,0.0527,0.0629,0.0644,0.0705,0.0721,0.0705,0.071,0.0865,0.0867,0.0868,0.0844,0,0,0,0,0,0,0.0233,0.0254,0.0273,0.0344,0.0367,0.0456,0.0463,0.0475,0.0509,0.0511,0.0582,0.0593,0.063,0.0696,0.071,0.0729,0.0715,0.0864,0.0866,0.0868,0.0844,0.0845,0.0845,0,0,0,0,0,0.0226,0.0262,0.0274,0.0291,0.0392,0.0457,0.047,0.0511,0.051,0.053,0.0572,0.0591,0.0717,0.0702,0.0718,0.0739,0.0863,0.0865,0.0867,0.0843,0.0844,0.0845,0,0,0,0,0,0,0.0192,0.0272,0.0286,0.0345,0.0394,0.0464,0.0491,0.051,0.0561,0.0561,0.061,0.0626,0.0682,0.0717,0.0698,0.0792,0.0791,0.0797,0.0767,0.0769,0.077,0.0761,0.0719,0,0,0,0,0,0.0191,0.0237,0.0304,0.035,0.0374,0.0428,0.0458,0.0485,0.0537,0.0558,0.0605,0.0656,0.0707,0.074,0.079,0.0848,0.0865,0.0871,0.0872,0.0872,0.0877,0.0911,0.0915,0.0875,0.0875,0.0875,0,0,0.019,0.0239,0.0265,0.0344,0.0385,0.0432,0.0445,0.0494,0.0529,0.0566,0.0626,0.0662,0.0722,0.0782,0.081,0.0812,0.0891,0.0875,0.0875,0.0879,0.0914,0.0918,0.0921,0.0877,0.0877,0.0876,0,0,0.0213,0.0254,0.0298,0.0338,0.04,0.0435,0.0446,0.0513,0.0538,0.0599,0.0628,0.0671,0.0758,0.0799,0.0832,0.0871,0.0891,0.0886,0.089,0.0923,0.0927,0.093,0.0945,0.0949,0.089,0.089,0.089,0,0.0205,0.0276,0.0317,0.0365,0.04,0.0434,0.0479,0.0516,0.0591,0.0614,0.0615,0.0725,0.0768,0.0838,0.0848,0.0872,0.0887,0.0878,0.0923,0.0926,0.093,0.0945,0.095,0.0889,0.0889,0.0889,0.0889,0,0.0263,0.0312,0.034,0.0411,0.0448,0.0494,0.0543,0.0576,0.06,0.0635,0.0698,0.075,0.0812,0.0831,0.0854,0.0905,0.0904,0.0913,0.0914,0.0932,0.0947,0.0953,0.0888,0.0888,0.0888,0.0888,0,0,0.0269,0.0362,0.0372,0.0405,0.0475,0.0514,0.0562,0.0622,0.065,0.07,0.0742,0.0815,0.0824,0.0861,0.0889,0.0918,0.0947,0.0924,0.0926,0.0927,0.1007,0.1001,0.1007,0.096,0.0961,0.0962,0.1003,0,0.0302,0.0388,0.0427,0.0496,0.0542,0.0576,0.0617,0.0665,0.07,0.0745,0.0784,0.0835,0.0842,0.0864,0.0894,0.0937,0.0964,0.0934,0.1001,0.1003,0.0986,0.1015,0.1009,0.1045,0.1009,0.101,0.1011,0,0.0352,0.0402,0.0476,0.0541,0.0562,0.0599,0.0658,0.07,0.0755,0.0779,0.082,0.0847,0.09,0.0896,0.0969,0.0948,0.0977,0.1002,0.1005,0.1014,0.1009,0.1026,0.1057,0.1063,0.102,0.1019,0.1018,0,0.035,0.0436,0.0492,0.0519,0.0596,0.0621,0.0655,0.0709,0.0743,0.0795,0.0818,0.0874,0.0906,0.095,0.0992,0.0985,0.1062,0.1061,0.1084,0.1083,0.11,0.1098,0.1138,0.1116,0.1116,0.1116,0.1116,0,0.0384,0.0428,0.0492,0.0527,0.0577,0.0621,0.0671,0.0706,0.0755,0.0797,0.0829,0.0868,0.0921,0.0968,0.1001,0.1057,0.1071,0.1092,0.1101,0.109,0.1088,0.1111,0.111,0.1117,0.1117,0.1117,0.1117,0,0.0391,0.0436,0.0499,0.0566,0.0585,0.0619,0.0678,0.0713,0.0748,0.0802,0.0817,0.0874,0.093,0.0976,0.105,0.1072,0.1132,0.1141,0.1113,0.1118,0.1138,0.1136,0.1195,0.1206,0.1175,0.1175,0.1176,0,0.0411,0.0446,0.0517,0.0547,0.058,0.0629,0.0664,0.0708,0.0743,0.0809,0.0836,0.0895,0.0944,0.1032,0.1081,0.1137,0.1149,0.1166,0.1158,0.1146,0.1151,0.1149,0.1153,0.1167,0.1167,0.1167,0.1167,0,0.0441,0.0461,0.051,0.0566,0.0607,0.0653,0.0701,0.0724,0.0778,0.0816,0.0873,0.0911,0.0986,0.1044,0.1106,0.1142,0.1164,0.1169,0.1177,0.1168,0.1151,0.1162,0.1116,0.1168,0.1168,0.1168,0.1168,0.1167,0.0456,0.0489,0.0544,0.0598,0.0638,0.0682,0.0718,0.0758,0.0807,0.0871,0.0894,0.0954,0.1009,0.1094,0.113,0.1177,0.118,0.1192,0.1195,0.1198,0.1197,0.1141,0.1189,0.1189,0.1189,0.1189,0.1189,0,0.0489,0.0526,0.0575,0.064,0.0682,0.0698,0.0752,0.0786,0.0838,0.0887,0.0934,0.1001,0.1057,0.111,0.1169,0.1197,0.1209,0.1211,0.121,0.1219,0.1191,0.1178,0.1201,0.1201,0.1201,0.1201,0.1201,0.1201,0.0511,0.0568,0.0595,0.0672,0.0709,0.0767,0.0796,0.0837,0.0877,0.0949,0.0996,0.103,0.1081,0.1144,0.1196,0.1211,0.1232,0.1232,0.1248,0.1222,0.122,0.1219,0.1207,0.1235,0.1235,0.1273,0.1273,0.1273]},{"header":{"parameterUnit":"m.s-1","parameterCategory":1,"la1":30.2991,"la2":30.254,"lo1":-89.0895,"lo2":-89.0444,"dy":0.0017,"dx":0.0017,"nx":28,"ny":28,"refTime":"2025-06-14T03:00:00:Z","depth":0,"parameterNumber":3,"parameterNumberName":"V-component_of_WINDS"},"data":[0,0,0,0,0,0,0,0,0,0,0,0,0,0,0,0,0,0,0,0,0,0,0,0,0,0,0,0,0,0,0,0,0,0,0,0,0,0,0,0,0,0,0,0,0,0,0,0,0,0,0,0,0,0,0,0,0,0,4.2236,4.2238,0,4.2385,4.2387,4.2389,4.2366,4.2364,4.2361,4.2359,4.2504,4.251,4.2516,0,0,0,0,0,0,0,0,0,0,0,0,0,4.1923,4.1929,4.2236,4.2238,4.224,4.2385,4.2387,4.2389,4.2367,4.2364,4.2361,4.2358,4.2502,4.2509,4.2517,0,0,0,0,0,0,0,0,0,0,0,0,0,4.2064,4.1931,4.2236,4.2246,4.2249,4.2385,4.2387,4.239,4.2367,4.2364,4.236,4.2356,4.2499,4.2508,4.2518,4.265,0,0,4.2546,4.255,0,0,0,0,0,0,0,0,4.2056,4.2075,4.2243,4.2246,4.2249,4.2354,4.233,4.2477,4.2368,4.2322,4.2359,4.2354,4.2456,4.2469,4.2505,4.2657,4.2663,4.2547,4.2552,4.2556,4.2559,0,0,0,0,0,0,0,4.2046,4.2069,4.2295,4.2245,4.2249,4.2241,4.2257,4.2358,4.2408,4.2326,4.2325,4.2343,4.2457,4.2496,4.2508,4.2665,4.2547,4.2555,4.2561,4.2564,4.2932,4.2936,0,0,0,0,0,0,4.2035,4.2061,4.229,4.2299,4.2141,4.2249,4.2267,4.2324,4.2407,4.2416,4.2346,4.2341,4.2482,4.2497,4.2513,4.2674,4.2556,4.2565,4.257,4.2928,4.2933,4.2938,0,0,0,0,0,0,4.2028,4.2055,4.2284,4.218,4.2208,4.2259,4.2322,4.2328,4.2368,4.2423,4.2431,4.2377,4.248,4.25,4.2617,4.2679,4.2569,4.2578,4.2923,4.293,4.2936,4.2997,0,0,0,0,0,0,4.2019,4.2053,4.2106,4.2181,4.2214,4.2388,4.2326,4.2334,4.2385,4.238,4.2454,4.2462,4.2478,4.2603,4.2626,4.269,4.2585,4.2918,4.2926,4.2934,4.299,4.3005,4.3018,0,0,0,0,0,4.2008,4.2116,4.2109,4.2137,4.2282,4.2392,4.241,4.2429,4.239,4.2442,4.2477,4.246,4.2668,4.2615,4.2641,4.2708,4.2914,4.2924,4.2933,4.2984,4.3002,4.3017,0,0,0,0,0,0,4.2044,4.2126,4.2119,4.2255,4.2317,4.2388,4.2455,4.2447,4.2519,4.2512,4.2529,4.2546,4.2664,4.2697,4.2637,4.284,4.2785,4.28,4.2815,4.2833,4.2846,4.2836,4.2593,0,0,0,0,0,4.2068,4.2154,4.2219,4.2332,4.2364,4.2404,4.2452,4.2462,4.2525,4.255,4.2594,4.2654,4.2733,4.2784,4.286,4.2994,4.3009,4.3053,4.3066,4.3078,4.3091,4.3164,4.3184,4.2969,4.2969,4.2969,0,0,4.2119,4.2174,4.2226,4.2341,4.239,4.2475,4.2426,4.2518,4.2581,4.2563,4.2678,4.2711,4.2779,4.2905,4.2962,4.2936,4.3153,4.309,4.3098,4.3105,4.3175,4.3196,4.3214,4.2975,4.2974,4.2973,0,0,4.2254,4.2305,4.2405,4.2456,4.2531,4.2557,4.2581,4.2653,4.2675,4.279,4.2779,4.2851,4.2987,4.3036,4.3079,4.3231,4.3218,4.3255,4.3328,4.3399,4.3416,4.3431,4.3486,4.3505,4.3268,4.3268,4.3268,0,4.2306,4.2438,4.2457,4.2551,4.2602,4.2591,4.2692,4.2738,4.2834,4.2867,4.2837,4.3007,4.3052,4.3189,4.3227,4.3261,4.3288,4.3248,4.3412,4.3428,4.3442,4.3495,4.3515,4.3272,4.3271,4.3271,4.3271,0,4.2498,4.2589,4.266,4.2756,4.2813,4.291,4.2942,4.2997,4.3,4.3028,4.3144,4.3198,4.3284,4.3317,4.332,4.3454,4.3436,4.3409,4.3354,4.3466,4.3516,4.3536,4.3278,4.3276,4.3275,4.3274,0,0,4.2663,4.2767,4.2793,4.2836,4.2918,4.2987,4.3082,4.3169,4.3216,4.3281,4.336,4.3475,4.345,4.3499,4.3506,4.3569,4.3686,4.3534,4.3536,4.3561,4.3838,4.3859,4.3882,4.3677,4.3681,4.3684,4.3832,0,4.2807,4.2979,4.2998,4.315,4.3233,4.3223,4.3306,4.3363,4.3391,4.3463,4.3493,4.3575,4.3536,4.3565,4.3626,4.3659,4.3742,4.3648,4.375,4.3753,4.3735,4.3908,4.393,4.4068,4.3852,4.3855,4.3857,0,4.2999,4.3073,4.3234,4.3304,4.3339,4.3414,4.3494,4.3564,4.3628,4.3644,4.3698,4.3697,4.3792,4.3733,4.3863,4.3799,4.3841,4.3863,4.3869,4.388,4.3813,4.3924,4.4112,4.4133,4.3888,4.3885,4.3883,0,4.3104,4.3242,4.3357,4.3394,4.3478,4.353,4.3567,4.3628,4.3679,4.3748,4.378,4.3858,4.3902,4.3961,4.398,4.3935,4.411,4.4052,4.4125,4.4124,4.4163,4.4161,4.4361,4.4188,4.4188,4.4187,4.4187,0,4.3264,4.3363,4.3406,4.3476,4.3586,4.3605,4.3712,4.3746,4.38,4.3875,4.3869,4.3939,4.396,4.4033,4.4048,4.4154,4.4172,4.4187,4.419,4.4189,4.4187,4.4217,4.4209,4.4193,4.4192,4.4191,4.419,0,4.3401,4.3434,4.3558,4.3628,4.3647,4.3725,4.3784,4.385,4.3876,4.3971,4.3994,4.4035,4.412,4.4146,4.4247,4.4257,4.4381,4.4375,4.4361,4.4362,4.4433,4.4427,4.4662,4.4693,4.4498,4.45,4.4501,0,4.3502,4.3578,4.3657,4.3708,4.3748,4.383,4.3883,4.3903,4.3957,4.4035,4.4092,4.4177,4.4246,4.4382,4.4419,4.4496,4.4492,4.4569,4.4504,4.45,4.4495,4.4491,4.4498,4.4582,4.4584,4.4586,4.4587,0,4.3678,4.369,4.3768,4.3851,4.3914,4.3979,4.4042,4.4083,4.4112,4.4173,4.4261,4.4315,4.442,4.4503,4.4582,4.4616,4.4607,4.4607,4.4628,4.4628,4.4618,4.4625,4.4396,4.4602,4.46,4.4599,4.4598,4.4598,4.3801,4.3869,4.3935,4.4021,4.407,4.4129,4.4195,4.4231,4.4306,4.4395,4.4401,4.4496,4.4556,4.4661,4.4699,4.4773,4.475,4.478,4.4788,4.4796,4.4802,4.4605,4.4786,4.4786,4.4786,4.4785,4.4785,0,4.3978,4.402,4.4099,4.4188,4.4255,4.4241,4.431,4.4366,4.4451,4.4509,4.4578,4.4678,4.4759,4.4802,4.4882,4.4932,4.493,4.4953,4.495,4.4958,4.4818,4.4792,4.4954,4.4954,4.4954,4.4954,4.4953,4.4953,4.4078,4.4192,4.4212,4.4349,4.4389,4.4485,4.4525,4.4578,4.4625,4.4739,4.4807,4.4835,4.4887,4.497,4.5043,4.5053,4.5083,4.5109,4.5117,4.4985,4.4968,4.4952,4.4928,4.5115,4.5115,4.5251,4.5253,4.5254]}]]